Time,TemperatureF,DewpointF,PressureIn,WindDirection,WindDirectionDegrees,WindSpeedMPH,WindSpeedGustMPH,Humidity,HourlyPrecipIn,Conditions,Clouds,dailyrainin,SoftwareType,DateUTC
2013-01-31 00:05:00,18.2,13.0,29.82,WNW,292,19.0,28.0,81,0.00,,,0.00,weatherlink.com 1.10,2013-01-31 06:05:00,
2013-01-31 00:20:00,18.4,14.0,29.83,NW,308,12.0,23.0,82,0.00,,,0.00,weatherlink.com 1.10,2013-01-31 06:20:00,
2013-01-31 00:35:00,18.4,14.0,29.83,NNW,332,7.0,22.0,81,0.00,,,0.00,weatherlink.com 1.10,2013-01-31 06:35:00,
2013-01-31 00:50:00,18.6,14.0,29.83,WNW,295,17.0,22.0,81,0.00,,,0.00,weatherlink.com 1.10,2013-01-31 06:50:00,
2013-01-31 01:05:00,18.9,14.0,29.83,NW,320,7.0,19.0,81,0.00,,,0.00,weatherlink.com 1.10,2013-01-31 07:05:00,
2013-01-31 01:20:00,19.2,15.0,29.84,WNW,286,12.0,15.0,82,0.00,,,0.00,weatherlink.com 1.10,2013-01-31 07:20:00,
2013-01-31 01:35:00,19.6,15.0,29.84,West,273,6.0,19.0,82,0.00,,,0.00,weatherlink.com 1.10,2013-01-31 07:35:00,
2013-01-31 01:50:00,20.2,16.0,29.84,NW,306,10.0,17.0,83,0.00,,,0.00,weatherlink.com 1.10,2013-01-31 07:50:00,
2013-01-31 02:05:00,20.9,17.0,29.85,SW,221,11.0,23.0,83,0.00,,,0.00,weatherlink.com 1.10,2013-01-31 08:05:00,
2013-01-31 02:20:00,21.4,17.0,29.85,WNW,302,8.0,21.0,82,0.00,,,0.00,weatherlink.com 1.10,2013-01-31 08:20:00,
2013-01-31 02:35:00,21.6,17.0,29.86,WNW,286,8.0,21.0,83,0.00,,,0.00,weatherlink.com 1.10,2013-01-31 08:35:00,
2013-01-31 02:50:00,21.9,18.0,29.86,West,263,10.0,20.0,83,0.00,,,0.00,weatherlink.com 1.10,2013-01-31 08:50:00,
2013-01-31 03:06:00,22.2,18.0,29.85,West,266,10.0,18.0,84,0.00,,,0.00,weatherlink.com 1.10,2013-01-31 09:06:00,
2013-01-31 03:21:00,22.4,18.0,29.85,West,259,13.0,20.0,83,0.00,,,0.00,weatherlink.com 1.10,2013-01-31 09:21:00,
2013-01-31 03:36:00,22.5,18.0,29.85,WNW,300,18.0,25.0,82,0.00,,,0.00,weatherlink.com 1.10,2013-01-31 09:36:00,
2013-01-31 03:51:00,22.6,18.0,29.85,WNW,290,14.0,23.0,82,0.00,,,0.00,weatherlink.com 1.10,2013-01-31 09:51:00,
2013-01-31 04:06:00,22.4,17.0,29.85,NW,312,18.0,28.0,80,0.00,,,0.00,weatherlink.com 1.10,2013-01-31 10:06:00,
2013-01-31 04:21:00,22.0,17.0,29.86,WNW,298,14.0,27.0,82,0.00,,,0.00,weatherlink.com 1.10,2013-01-31 10:21:00,
2013-01-31 04:36:00,21.7,17.0,29.86,WNW,286,7.0,19.0,82,0.00,,,0.00,weatherlink.com 1.10,2013-01-31 10:36:00,
2013-01-31 04:51:00,21.2,15.0,29.86,WNW,290,18.0,23.0,78,0.00,,,0.00,weatherlink.com 1.10,2013-01-31 10:51:00,
2013-01-31 05:06:00,20.2,14.0,29.86,WSW,253,19.0,30.0,77,0.00,,,0.00,weatherlink.com 1.10,2013-01-31 11:06:00,
2013-01-31 05:21:00,19.8,15.0,29.87,WNW,298,8.0,19.0,82,0.00,,,0.00,weatherlink.com 1.10,2013-01-31 11:21:00,
2013-01-31 05:36:00,18.6,15.0,29.88,NW,324,7.0,19.0,84,0.00,,,0.00,weatherlink.com 1.10,2013-01-31 11:36:00,
2013-01-31 05:51:00,18.1,14.0,29.88,NNW,331,7.0,18.0,83,0.00,,,0.00,weatherlink.com 1.10,2013-01-31 11:51:00,
2013-01-31 06:06:00,17.5,13.0,29.89,NNW,336,10.0,21.0,82,0.00,,,0.00,weatherlink.com 1.10,2013-01-31 12:06:00,
2013-01-31 06:21:00,17.2,13.0,29.90,NW,317,11.0,17.0,82,0.00,,,0.00,weatherlink.com 1.10,2013-01-31 12:21:00,
2013-01-31 06:36:00,17.2,12.0,29.91,WNW,299,4.0,15.0,81,0.00,,,0.00,weatherlink.com 1.10,2013-01-31 12:36:00,
2013-01-31 06:51:00,16.9,12.0,29.93,NNW,331,8.0,16.0,82,0.00,,,0.00,weatherlink.com 1.10,2013-01-31 12:51:00,
2013-01-31 07:06:00,16.3,11.0,29.93,NW,320,11.0,21.0,79,0.00,,,0.00,weatherlink.com 1.10,2013-01-31 13:06:00,
2013-01-31 07:21:00,15.9,11.0,29.93,NW,313,7.0,20.0,81,0.00,,,0.00,weatherlink.com 1.10,2013-01-31 13:21:00,
2013-01-31 07:36:00,15.7,11.0,29.94,WNW,290,7.0,17.0,82,0.00,,,0.00,weatherlink.com 1.10,2013-01-31 13:36:00,
2013-01-31 07:51:00,16.0,11.0,29.94,NW,312,2.0,15.0,82,0.00,,,0.00,weatherlink.com 1.10,2013-01-31 13:51:00,
2013-01-31 08:06:00,16.0,11.0,29.94,NNW,336,8.0,16.0,82,0.00,,,0.00,weatherlink.com 1.10,2013-01-31 14:06:00,
2013-01-31 08:21:00,16.4,12.0,29.95,West,267,10.0,18.0,82,0.00,,,0.00,weatherlink.com 1.10,2013-01-31 14:21:00,
2013-01-31 08:36:00,16.2,11.0,29.95,West,273,17.0,20.0,80,0.00,,,0.00,weatherlink.com 1.10,2013-01-31 14:36:00,
2013-01-31 08:51:00,16.5,11.0,29.96,WNW,291,15.0,21.0,78,0.00,,,0.00,weatherlink.com 1.10,2013-01-31 14:51:00,
2013-01-31 09:06:00,16.2,11.0,29.97,WNW,302,9.0,19.0,80,0.00,,,0.00,weatherlink.com 1.10,2013-01-31 15:06:00,
2013-01-31 09:21:00,15.8,10.0,29.98,NNW,329,13.0,22.0,79,0.00,,,0.00,weatherlink.com 1.10,2013-01-31 15:21:00,
2013-01-31 09:36:00,15.0,10.0,29.99,WSW,248,12.0,22.0,80,0.00,,,0.00,weatherlink.com 1.10,2013-01-31 15:36:00,
2013-01-31 09:51:00,14.7,9.0,30.00,NW,313,5.0,21.0,78,0.00,,,0.00,weatherlink.com 1.10,2013-01-31 15:51:00,
2013-01-31 10:06:00,14.8,9.0,30.01,West,279,12.0,19.0,78,0.00,,,0.00,weatherlink.com 1.10,2013-01-31 16:06:00,
2013-01-31 10:21:00,14.9,9.0,30.01,WNW,292,11.0,23.0,78,0.00,,,0.00,weatherlink.com 1.10,2013-01-31 16:21:00,
2013-01-31 10:36:00,15.0,8.0,30.02,WNW,299,6.0,19.0,75,0.00,,,0.00,weatherlink.com 1.10,2013-01-31 16:36:00,
2013-01-31 10:52:00,15.5,9.0,30.02,WNW,298,12.0,21.0,76,0.00,,,0.00,weatherlink.com 1.10,2013-01-31 16:52:00,
2013-01-31 11:07:00,15.2,9.0,30.03,WNW,291,12.0,20.0,76,0.00,,,0.00,weatherlink.com 1.10,2013-01-31 17:07:00,
2013-01-31 11:22:00,15.7,9.0,30.03,NW,315,5.0,19.0,75,0.00,,,0.00,weatherlink.com 1.10,2013-01-31 17:22:00,
2013-01-31 11:37:00,15.2,10.0,30.03,West,273,11.0,16.0,78,0.00,,,0.00,weatherlink.com 1.10,2013-01-31 17:37:00,
2013-01-31 11:52:00,15.7,10.0,30.03,WNW,299,5.0,19.0,77,0.00,,,0.00,weatherlink.com 1.10,2013-01-31 17:52:00,
2013-01-31 12:07:00,15.7,9.0,30.04,NNW,327,10.0,16.0,76,0.00,,,0.00,weatherlink.com 1.10,2013-01-31 18:07:00,
2013-01-31 12:22:00,15.2,8.0,30.04,NW,317,14.0,26.0,73,0.00,,,0.00,weatherlink.com 1.10,2013-01-31 18:22:00,
2013-01-31 12:37:00,14.9,8.0,30.04,NNW,328,6.0,21.0,74,0.00,,,0.00,weatherlink.com 1.10,2013-01-31 18:37:00,
2013-01-31 12:52:00,15.1,8.0,30.04,NW,308,20.0,25.0,72,0.00,,,0.00,weatherlink.com 1.10,2013-01-31 18:52:00,
2013-01-31 13:07:00,15.0,8.0,30.04,NNW,329,13.0,25.0,72,0.00,,,0.00,weatherlink.com 1.10,2013-01-31 19:07:00,
2013-01-31 13:37:00,15.1,7.0,30.05,West,279,12.0,24.0,71,0.00,,,0.00,weatherlink.com 1.10,2013-01-31 19:37:00,
2013-01-31 13:52:00,14.3,7.0,30.06,WNW,288,22.0,24.0,71,0.00,,,0.00,weatherlink.com 1.10,2013-01-31 19:52:00,
2013-01-31 14:07:00,14.6,7.0,30.07,NW,313,13.0,26.0,71,0.00,,,0.00,weatherlink.com 1.10,2013-01-31 20:07:00,
2013-01-31 14:22:00,14.4,7.0,30.07,West,270,15.0,23.0,73,0.00,,,0.00,weatherlink.com 1.10,2013-01-31 20:22:00,
2013-01-31 14:37:00,14.5,7.0,30.08,NNW,344,9.0,26.0,73,0.00,,,0.00,weatherlink.com 1.10,2013-01-31 20:37:00,
2013-01-31 14:52:00,14.5,7.0,30.09,NNW,336,10.0,22.0,73,0.00,,,0.00,weatherlink.com 1.10,2013-01-31 20:52:00,
2013-01-31 15:08:00,13.1,5.0,30.10,WNW,302,12.0,30.0,71,0.00,,,0.00,weatherlink.com 1.10,2013-01-31 21:08:00,
2013-01-31 15:23:00,13.0,7.0,30.11,NW,306,14.0,25.0,75,0.00,,,0.00,weatherlink.com 1.10,2013-01-31 21:23:00,
2013-01-31 15:38:00,12.6,6.0,30.12,WNW,294,15.0,23.0,75,0.00,,,0.00,weatherlink.com 1.10,2013-01-31 21:38:00,
2013-01-31 15:53:00,13.1,6.0,30.12,West,275,9.0,23.0,72,0.00,,,0.00,weatherlink.com 1.10,2013-01-31 21:53:00,
2013-01-31 16:08:00,12.1,4.0,30.13,NNW,329,15.0,26.0,71,0.00,,,0.00,weatherlink.com 1.10,2013-01-31 22:08:00,
2013-01-31 16:23:00,11.7,3.0,30.14,NNW,340,14.0,24.0,69,0.00,,,0.00,weatherlink.com 1.10,2013-01-31 22:23:00,
2013-01-31 16:38:00,11.4,4.0,30.15,NW,311,20.0,25.0,72,0.00,,,0.00,weatherlink.com 1.10,2013-01-31 22:38:00,
2013-01-31 16:53:00,10.9,4.0,30.16,NW,304,16.0,24.0,74,0.00,,,0.00,weatherlink.com 1.10,2013-01-31 22:53:00,
2013-01-31 17:08:00,10.1,3.0,30.16,NNW,340,14.0,29.0,72,0.00,,,0.00,weatherlink.com 1.10,2013-01-31 23:08:00,
2013-01-31 17:23:00,9.9,4.0,30.17,NW,313,16.0,29.0,75,0.00,,,0.00,weatherlink.com 1.10,2013-01-31 23:23:00,
2013-01-31 17:38:00,9.6,3.0,30.18,West,279,14.0,25.0,75,0.00,,,0.00,weatherlink.com 1.10,2013-01-31 23:38:00,
2013-01-31 17:53:00,9.4,3.0,30.19,WNW,286,11.0,18.0,76,0.00,,,0.00,weatherlink.com 1.10,2013-01-31 23:53:00,
2013-01-31 18:08:00,9.0,2.0,30.20,NW,311,27.0,27.0,73,0.00,,,0.00,weatherlink.com 1.10,2013-02-01 00:08:00,
2013-01-31 18:23:00,8.8,2.0,30.20,NW,308,8.0,28.0,72,0.00,,,0.00,weatherlink.com 1.10,2013-02-01 00:23:00,
2013-01-31 18:39:00,8.7,1.0,30.21,NW,324,17.0,30.0,70,0.00,,,0.00,weatherlink.com 1.10,2013-02-01 00:39:00,
2013-01-31 18:54:00,8.7,1.0,30.22,WNW,282,11.0,26.0,71,0.00,,,0.00,weatherlink.com 1.10,2013-02-01 00:54:00,
2013-01-31 19:09:00,8.2,2.0,30.22,WNW,286,22.0,28.0,77,0.00,,,0.00,weatherlink.com 1.10,2013-02-01 01:09:00,
2013-01-31 19:24:00,8.3,4.0,30.23,WNW,288,13.0,20.0,81,0.00,,,0.00,weatherlink.com 1.10,2013-02-01 01:24:00,
2013-01-31 19:39:00,8.0,3.0,30.23,WNW,296,13.0,27.0,78,0.00,,,0.00,weatherlink.com 1.10,2013-02-01 01:39:00,
2013-01-31 19:54:00,7.9,2.0,30.24,NW,316,5.0,22.0,77,0.00,,,0.00,weatherlink.com 1.10,2013-02-01 01:54:00,
2013-01-31 20:09:00,8.6,3.0,30.25,NNW,327,14.0,24.0,79,0.00,,,0.00,weatherlink.com 1.10,2013-02-01 02:09:00,
2013-01-31 20:24:00,7.8,3.0,30.26,NW,317,9.0,25.0,80,0.00,,,0.00,weatherlink.com 1.10,2013-02-01 02:24:00,
2013-01-31 20:39:00,7.3,3.0,30.26,WNW,290,15.0,20.0,83,0.00,,,0.00,weatherlink.com 1.10,2013-02-01 02:39:00,
2013-01-31 20:54:00,7.4,2.0,30.27,West,281,14.0,24.0,77,0.00,,,0.00,weatherlink.com 1.10,2013-02-01 02:54:00,
2013-01-31 21:09:00,7.4,2.0,30.29,WNW,296,7.0,27.0,77,0.00,,,0.00,weatherlink.com 1.10,2013-02-01 03:09:00,
2013-01-31 21:24:00,7.0,0.0,30.29,NW,310,13.0,24.0,73,0.00,,,0.00,weatherlink.com 1.10,2013-02-01 03:24:00,
2013-01-31 21:40:00,6.7,1.0,30.30,WNW,294,8.0,24.0,77,0.00,,,0.00,weatherlink.com 1.10,2013-02-01 03:40:00,
2013-01-31 21:54:00,6.7,1.0,30.30,WNW,302,14.0,21.0,76,0.00,,,0.00,weatherlink.com 1.10,2013-02-01 03:54:00,
2013-01-31 22:10:00,6.5,0.0,30.31,NW,308,13.0,26.0,75,0.00,,,0.00,weatherlink.com 1.10,2013-02-01 04:10:00,
2013-01-31 22:25:00,6.3,0.0,30.31,NW,323,13.0,23.0,75,0.00,,,0.00,weatherlink.com 1.10,2013-02-01 04:25:00,
2013-01-31 22:40:00,6.3,1.0,30.32,NNW,336,12.0,17.0,80,0.00,,,0.00,weatherlink.com 1.10,2013-02-01 04:40:00,
2013-01-31 22:55:00,6.3,1.0,30.32,NW,313,10.0,17.0,80,0.00,,,0.00,weatherlink.com 1.10,2013-02-01 04:55:00,
2013-01-31 23:10:00,6.1,1.0,30.32,NNW,337,14.0,20.0,78,0.00,,,0.00,weatherlink.com 1.10,2013-02-01 05:10:00,
2013-01-31 23:25:00,5.9,1.0,30.34,NNW,329,10.0,21.0,81,0.00,,,0.00,weatherlink.com 1.10,2013-02-01 05:25:00,
2013-01-31 23:40:00,6.1,1.0,30.34,NW,317,8.0,17.0,80,0.00,,,0.00,weatherlink.com 1.10,2013-02-01 05:40:00,
2013-01-31 23:55:00,6.1,1.0,30.34,WNW,303,13.0,23.0,79,0.00,,,0.00,weatherlink.com 1.10,2013-02-01 05:55:00,